Leuchars, United Kingdom

12:03 AM GMT on January 23, 2017 (GMT +0000)
Leuchars Air Base

Weather History for EGQL - November, 2012

Change the Weather History Date:

Thursday, November 15, 2012

  Actual Average Record
Temperature  
Mean Temperature 42 °F -  
Max Temperature 48 °F 44 °F 59 °F (2001)
Min Temperature 35 °F 36 °F 30 °F (2010)
Degree Days  
Heating Degree Days 24    
Moisture  
Dew Point 41 °F    
Average Humidity 95    
Maximum Humidity 100    
Minimum Humidity 81    
Precipitation  
Precipitation 0.01 in - - ()
Sea Level Pressure  
Sea Level Pressure 30.07 in    
Wind  
Wind Speed 5 mph ()    
Max Wind Speed 10 mph    
Max Gust Speed -    
Visibility 4.4 miles    
Events Fog , Rain    
Averages and records for this station are not official NWS values.
T = Trace of Precipitation, MM = Missing Value Source: Averaged Metar Reports

Daily Weather History Graph

Daily Weather History Graph

Search for Another Location

Airport or City:

Trip Planner

Search our weather history database for the weather conditions in past years. The results will help you decide how hot, cold, wet, or windy it might be!

Date:

Astronomy

Nov. 15, 2012 Rise Set
Actual Time 7:50 AM GMT 4:01 PM GMT
Civil Twilight 7:07 AM GMT 4:43 PM GMT
Nautical Twilight 6:21 AM GMT 5:30 PM GMT
Astronomical Twilight 5:37 AM GMT 6:14 PM GMT
Moon 9:46 AM GMT (11/15) 5:21 PM GMT (11/15)
Length of Visible Light 9h 36m
Length of Day
8h 10m
Waxing Crescent, 4% of the Moon is Illuminated
Nov 15
Waxing Crescent
Nov 20
First Quarter
Nov 28
Full
Dec 6
Last Quarter
Dec 13
New

Hourly Weather History & Observations

Time (GMT) Temp. Windchill Dew Point Humidity Pressure Visibility Wind Dir Wind Speed Gust Speed Precip Events Conditions
12:50 AM 41.0 °F 38.0 °F 41.0 °F 100% 30.18 in - WNW 4.6 mph - N/A   Clear
1:50 AM 41.0 °F 39.0 °F 39.2 °F 93% 30.18 in - West 3.5 mph - N/A   Clear
2:50 AM 39 °F - 38 °F 96% 30.19 in 9 mi WNW 4.6 mph - -   Scattered Clouds
2:50 AM 39.2 °F 35.9 °F 39.2 °F 100% 30.18 in 6.2 mi WNW 4.6 mph - N/A   Partly Cloudy
3:50 AM 37.4 °F - 35.6 °F 93% 30.18 in 6.2 mi NW 2.3 mph - N/A Fog Shallow Fog
4:07 AM 35.6 °F 32.8 °F 35.6 °F 100% 30.18 in 0.1 mi WNW 3.5 mph - N/A Fog Fog
4:50 AM 37.4 °F 32.1 °F 37.4 °F 100% 30.15 in 5.6 mi West 6.9 mph - N/A Fog Shallow Fog
5:50 AM 36 °F - 36 °F 100% 30.18 in 2 mi WNW 5.8 mph - -   Mist
5:50 AM 37.4 °F 32.8 °F 35.6 °F 93% 30.15 in 1.9 mi WNW 5.8 mph - N/A   Partly Cloudy
6:06 AM 37.4 °F - 35.6 °F 93% 30.15 in 1.4 mi NE 1.2 mph - N/A   Mostly Cloudy
6:15 AM 35.6 °F 32.8 °F 33.8 °F 93% 30.15 in 0.4 mi SW 3.5 mph - N/A Fog Fog
6:50 AM 35.6 °F 31.7 °F 35.6 °F 100% 30.15 in 0.3 mi West 4.6 mph - N/A Fog Fog
7:50 AM 37.4 °F 32.1 °F 37.4 °F 100% 30.15 in 0.1 mi SW 6.9 mph - N/A Fog Fog
8:50 AM 39 °F - 39 °F 98% 30.16 in 0 mi West 8.1 mph - - Fog Partial Fog
8:50 AM 39.2 °F 33.6 °F 39.2 °F 100% 30.15 in 0.1 mi West 8.1 mph - N/A Fog Fog
9:25 AM 39.2 °F 35.0 °F 39.2 °F 100% 30.12 in 3.1 mi West 5.8 mph - N/A Fog Patches of Fog
9:33 AM 39.2 °F 35.0 °F 39.2 °F 100% 30.12 in 5.0 mi West 5.8 mph - N/A   Mostly Cloudy
9:41 AM 39.2 °F 35.0 °F 39.2 °F 100% 30.12 in 6.2 mi West 5.8 mph - N/A   Mostly Cloudy
9:50 AM 39.2 °F - 39.2 °F 100% 30.12 in 6.2 mi WSW 2.3 mph - N/A   Mostly Cloudy
10:50 AM 42.8 °F 41.1 °F 41.0 °F 93% 30.09 in 5.0 mi WSW 3.5 mph - N/A   Mostly Cloudy
11:50 AM 44 °F - 43 °F 93% 30.09 in 3 mi SSW 4.6 mph - - Rain Light Drizzle
11:50 AM 42.8 °F 40.1 °F 42.8 °F 100% 30.06 in 3.1 mi SSW 4.6 mph - N/A   Light Drizzle
12:19 PM 44.6 °F - 44.6 °F 100% 30.06 in 5.6 mi WNW 2.3 mph - N/A   Light Drizzle
12:50 PM 44.6 °F - 44.6 °F 100% 30.04 in 6.2 mi SW 2.3 mph - N/A   Light Drizzle
1:13 PM 44.6 °F - 44.6 °F 100% 30.04 in 3.7 mi West 2.3 mph - N/A   Light Drizzle
1:34 PM 46.4 °F 45.2 °F 44.6 °F 93% 30.04 in 1.9 mi West 3.5 mph - N/A   Light Drizzle
1:50 PM 46.4 °F 44.3 °F 44.6 °F 93% 30.04 in 2.2 mi West 4.6 mph - N/A   Light Drizzle
2:12 PM 46.4 °F 44.3 °F 44.6 °F 93% 30.01 in 3.7 mi SW 4.6 mph - N/A   Overcast
2:50 PM 47 °F - 46 °F 94% 30.02 in 4 mi WSW 3.5 mph - - Rain Light Drizzle
2:50 PM 46.4 °F 45.2 °F 46.4 °F 100% 30.01 in 6.2 mi WSW 3.5 mph - N/A   Mostly Cloudy
3:50 PM 48.2 °F - 46.4 °F 93% 30.01 in 5.0 mi West 6.9 mph - N/A   Mostly Cloudy
4:50 PM 48.2 °F - 46.4 °F 93% 29.98 in 5.6 mi WSW 6.9 mph - N/A   Mostly Cloudy
5:50 PM 47 °F - 46 °F 96% 30.00 in 7 mi West 5.8 mph - -   Partly Cloudy
5:50 PM 48.2 °F - 46.4 °F 93% 29.98 in 6.2 mi West 5.8 mph - N/A   Mostly Cloudy
6:50 PM 48.2 °F - 46.4 °F 93% 29.98 in 6.2 mi WSW 9.2 mph - N/A   Mostly Cloudy
7:50 PM 46.4 °F 42.4 °F 44.6 °F 93% 29.95 in 6.2 mi WSW 8.1 mph - N/A   Scattered Clouds
8:50 PM 44 °F - 42 °F 89% 29.96 in 12 mi West 5.8 mph - -   Partly Cloudy
8:50 PM 44.6 °F 41.4 °F 41.0 °F 87% 29.95 in 6.2 mi West 5.8 mph - N/A   Partly Cloudy
9:50 PM 42.8 °F 38.0 °F 41.0 °F 93% 29.92 in 6.2 mi WSW 8.1 mph - N/A   Scattered Clouds
10:50 PM 46.4 °F 41.5 °F 44.6 °F 93% 29.92 in 6.2 mi West 10.4 mph - N/A   Mostly Cloudy
11:50 PM 48 °F - 44 °F 81% 29.92 in 25 mi West 9.2 mph - -   Mostly Cloudy
11:50 PM 48.2 °F - 44.6 °F 87% 29.92 in 6.2 mi West 9.2 mph - N/A   Mostly Cloudy